{"data":{"norad_id":64328,"epoch":"2026-09-19T10:00:48.660768Z","epoch_age_seconds":228662,"freshness":"STALE","line1":"1 64328U 25124M   26262.41722987  .00116411  00000+0  89617-3 0  9992","line2":"2 64328  43.0013 301.4046 0004162 263.0337  97.0058 15.70882374 73308","mean_motion":15.70882374,"eccentricity":0.0004162,"inclination_deg":43.0013,"raan_deg":301.4046,"arg_perigee_deg":263.0337,"mean_anomaly_deg":97.0058,"bstar":0.00089617,"rev_number":7330,"period_min":91.668225694918,"perigee_km":353.57104801062,"apogee_km":359.17685492663,"semimajor_km":6734.5109514686,"source":"CELESTRAK","updated_at":"2026-09-21T09:00:35.312882Z"}}